EHI
0 0 0 0 0 0 0 0 0 0 0 0 0 0 0 0 0 0 0 0 0 0 0 0 0 0 0 0 0 0 0 0 0 1 1 1 0 0
0 0 0 0 0 0 0 0 0 0 0 0 0 0 0 0 0 0 0 0 0 0 0 0 0 0 0 0 0 0 0 0 0 0 0 0 0 0
0 0 0 0 0 0 0 0 0 0 0 0 0 0 0 0 0 0 0 0 0 0 0 0 0 0 0 0 0 0 0 0 0 0 0 0 0 0
0 0 0 0 0 0 0 0 0 0 0 0 0 0 0 0 0 0 0 0 0 0 0 0 0 0 0 0 0 0 0 0 0 0 0 0 0 0
0 0 0 0 0 0 0 0 0 0 0 0 0 0 0 0 0 0 0 0 0 0 0 0 0 0 0 0 0 0 0 0 0 0 0 0 0 0
0 0 0 0 0 0 0 0 0 0 0 0 0 0 0 0 0 0 0 0 0 0 0 0 0 0 0 0 0 0 0 0 0 0 0 0 0 0
0 0 0 0 0 0 0 0 0 0 0 0 0 0 0 0 0 0 0 0 0 0 0 0 0 0 0 0 0 0 0 0 0 0 0 0 0 0
0 0 0 0 0 0 0 0 0 0 0 0 0 0 0 0 0 0 0 0 0 0 0 0 0 0 0 0 0 0 0 0 0 0 0 0 0 0
0 0 0 0 0 0 0 0 0 0 0 0 0 0 0 0 0 0 0 0 0 0 0 0 0 0 0 0 0 0 0 0 0 0 0 0 0 0
0 0 0 0 0 0 0 0 0 0 0 0 0 0 0 0 0 0 0 0 0 0 0 0 0 0 0 0 0 0 0 0 0 0 0 0 0 0
0 0 0 0 0 0 0 0 0 0 0 0 0 0 0 0 0 0 0 0 0 0 0 0 0 0 0 0 0 0 0 0 0 0 0 0 0 0
0 0 0 0 0 0 0 0 0 0 0 0 0 0 0 0 0 0 0 0 0 0 0 0 0 0 0 0 0 0 0 0 0 0 0 0 0 0
0 0 0 0 0 0 0 0 0 0 0 0 0 0 0 0 0 0 0 0 0 0 0 0 0 0 0 0 0 0 0 0 0 0 0 0 0 0
0 0 0 0 0 0 0 0 0 0 0 0 0 0 0 0 0 0 0 0 0 0 0 0 0 0 0 0 0 0 0 0 0 0 0 0 0 0
0 0 0 0 0 0 0 0 0 0 0 0 0 0 0 0 0 0 0 0 0 0 0 0 0 0 0 0 0 0 0 0 0 0 0 0 0 0
0 0 0 0 0 0 0 0 0 0 0 0 0 0 0 0 0 0 0 0 0 0 0 0 0 0 0 0 0 0 0 0 0 0 0 0 0 0
0 0 0 0 0 0 0 0 0 0 0 0 0 0 0 0 0 0 0 0 0 0 0 0 0 0 0 0 0 0 0 0 0 0 0 0 0 0
0 0 0 0 0 0 0 0 0 0 0 0 0 0 0 0 0 0 0 0 0 0 0 0 0 0 0 0 0 0 0 0 0 0 0 0 0 0
0 0 0 0 0 0 0 0 0 0 0 0 0 0 0 0 0 0 0 0 0 0 0 0 0 0 0 0 0 0 0 0 0 0 0 0 0 0
0 0 0 0 0 0 0 0 0 0 0 0 0 0 0 0 0 0 0 0 0 0 0 0 0 0 0 0 0 0 0 0 0 0 0 0 0 0
0 0 0 0 0 0 0 0 0 0 0 0 0 0 0 0 0 0 0 0 0 0 0 0 0 0 0 0 0 0 0 0 0 0 0 0 0 0
0 0 0 0 0 0 0 0 0 0 0 0 0 0 0 0 0 0 0 0 0 0 0 0 0 0 0 0 0 0 0 0 0 0 0 0 0 0
0 0 0 0 0 0 0 0 0 0 0 0 0 0 0 0 0 0 0 0 0 0 0 0 0 0 0 0 0 0 0 0 0 0 0 0 0 0
Wind_Speed
2 2 1 1 1 0 0 1 1 1 0 1 0 1 2 2 3 3 3 5 6 6 6 5 5 5 5 5 4 4 5 5 5 5 5 6 6 6
1 1 1 1 1 1 1 0 1 1 1 1 1 2 2 3 4 3 3 7 6 7 6 6 6 6 5 5 5 5 5 5 5 5 5 4 4 4
2 1 1 0 0 0 0 0 0 1 1 1 1 1 2 2 2 2 3 3 3 6 7 7 6 6 5 5 5 5 5 5 4 4 4 4 4 4
3 1 1 1 1 1 0 1 1 1 2 2 1 1 2 2 3 2 3 3 3 6 8 7 7 7 6 6 5 5 5 5 5 4 4 4 4 4
3 2 1 1 2 1 1 1 1 1 1 1 1 1 1 1 2 2 1 1 3 5 7 7 7 7 6 6 5 5 5 5 5 4 4 3 3 3
4 3 3 2 2 2 2 2 1 1 1 1 1 1 1 1 1 1 1 1 1 3 4 6 7 7 7 6 6 6 5 5 5 4 4 3 2 2
4 4 4 4 4 2 1 0 1 1 1 2 2 1 1 1 2 2 2 1 1 2 2 3 4 3 3 5 6 6 6 6 5 4 4 3 2 2
4 4 5 6 7 6 5 3 2 2 2 2 2 3 3 3 2 2 2 2 1 1 2 2 3 3 3 3 6 7 7 6 5 5 4 4 3 2
5 4 4 6 8 6 7 7 6 6 5 3 3 4 3 4 4 3 3 3 3 3 2 1 2 2 3 4 9 9 8 7 6 5 4 4 3 2
6 6 6 5 7 7 6 6 6 6 7 5 4 3 2 2 3 4 4 3 1 2 3 2 2 2 3 3 8 9 8 8 7 6 5 4 3 2
7 8 7 6 9 11 7 6 6 6 7 7 6 5 5 4 3 2 2 2 2 2 2 3 2 2 3 2 4 8 9 8 7 6 5 4 2 1
6 7 10 9 9 12 8 6 6 6 5 5 5 5 5 5 5 4 3 3 3 2 3 3 2 3 2 2 3 4 4 5 6 5 5 4 2 1
6 6 5 8 9 12 11 7 8 6 5 6 6 5 5 5 5 5 4 4 3 3 3 3 3 2 3 3 3 3 4 3 3 3 4 4 3 3
7 6 6 8 8 10 10 9 10 7 3 4 4 5 5 5 5 6 6 4 3 4 4 4 3 3 3 2 2 3 3 4 4 3 3 4 3 3
7 11 11 11 9 8 11 12 9 5 5 5 5 6 5 6 5 5 5 4 3 3 3 3 3 3 3 3 3 3 2 2 3 3 3 3 2 2
8 11 13 12 9 9 8 8 7 6 6 6 6 5 5 5 5 5 5 4 3 2 2 3 3 4 3 3 3 3 3 3 3 3 3 2 1 2
9 7 6 5 5 5 5 6 7 7 8 6 6 5 5 5 5 5 5 5 5 5 4 2 3 3 4 3 3 3 3 2 3 3 3 2 0 1
10 7 7 6 6 6 6 6 7 8 8 7 7 6 6 6 6 5 5 6 6 6 5 5 4 3 1 1 1 4 3 3 2 3 3 3 1 0
7 7 7 7 7 6 6 6 7 7 7 7 8 7 7 7 6 6 7 6 6 6 6 6 6 5 5 5 2 1 4 3 3 2 2 3 3 2
5 7 6 7 6 6 6 6 6 6 6 7 7 8 8 7 7 7 7 7 7 6 6 6 6 7 8 7 4 2 2 4 4 3 2 2 1 1
6 6 6 6 6 6 6 6 6 6 6 6 7 8 8 7 7 8 8 10 8 7 8 8 7 8 4 4 4 2 1 2 4 4 4 3 1 1
6 6 6 7 7 6 5 5 6 6 6 6 6 7 7 8 9 9 8 8 7 7 7 5 5 5 4 5 5 5 4 2 2 4 5 6 5 4
6 6 6 7 7 6 5 6 8 6 6 6 6 6 6 7 7 8 8 8 7 7 7 6 5 4 4 5 5 4 6 5 4 2 1 4 6 6
Wind_Direction
358 355 332 296 296 333 24 125 142 158 207 195 137 168 158 137 160 171 154 161 163 168 174 180 183 180 182 179 175 176 181 184 185 186 192 199 207 209
237 268 313 324 8 357 329 60 121 156 188 211 199 199 175 164 176 171 165 167 177 177 179 183 185 183 179 176 178 178 177 178 176 180 185 188 195 205
286 230 215 190 154 289 306 289 149 136 171 239 200 175 165 155 154 169 167 172 177 183 181 183 184 180 178 177 176 174 175 172 169 174 182 192 198 202
280 277 231 180 176 241 250 258 208 193 178 205 214 182 180 171 169 187 189 177 168 177 177 178 178 177 177 178 177 175 170 168 170 177 187 196 206 209
238 246 235 191 197 215 216 235 226 221 179 179 214 200 201 177 167 197 189 171 169 166 172 177 178 176 176 177 179 179 177 177 178 181 187 194 204 214
217 213 216 212 203 207 210 219 218 232 206 198 208 195 196 196 158 179 193 201 184 168 167 169 179 182 181 178 178 177 176 178 178 177 182 191 205 218
232 216 206 184 159 158 155 215 223 209 215 202 210 199 200 179 191 200 190 194 208 164 155 169 162 167 175 176 172 169 166 166 167 169 175 183 195 208
252 230 203 189 191 191 191 194 189 209 220 208 209 208 212 198 192 190 174 161 224 212 147 187 163 168 171 166 170 166 163 161 162 163 167 175 184 197
269 257 234 204 189 191 208 217 225 226 219 214 226 226 207 195 181 190 190 183 203 197 142 200 177 158 157 158 161 159 159 159 160 162 166 169 175 191
255 256 247 221 196 191 196 205 213 217 220 217 224 234 217 181 174 183 189 185 191 186 150 175 187 161 136 136 157 156 159 161 162 162 161 162 167 184
251 251 245 231 209 199 197 207 211 217 215 202 192 188 174 161 156 143 167 161 193 212 182 165 178 149 137 149 162 162 162 165 165 163 161 162 170 185
265 256 247 237 218 200 198 205 216 216 195 193 199 204 199 200 195 186 183 179 187 202 197 164 173 144 144 157 159 166 166 170 167 165 162 159 157 143
287 271 257 243 225 210 205 208 214 209 198 196 198 201 199 199 199 204 198 183 190 205 188 156 165 157 154 158 164 178 175 166 167 177 179 171 160 146
294 290 283 266 244 229 221 224 218 209 205 205 203 202 201 198 195 194 195 189 181 183 177 153 158 162 152 157 173 169 171 167 159 161 165 168 166 152
292 297 298 284 260 238 229 227 219 209 205 213 216 215 205 195 181 178 180 173 169 179 176 163 154 158 154 165 166 159 161 172 157 150 149 152 167 162
297 299 292 273 252 240 234 224 218 212 208 213 214 213 199 187 182 173 173 169 168 194 189 160 152 154 161 162 156 164 160 163 160 149 139 137 141 138
302 292 281 269 250 239 230 220 212 213 217 215 212 211 201 191 189 177 169 171 181 186 188 181 152 135 134 145 160 172 166 161 161 152 134 133 158 158
297 279 270 259 251 243 234 229 223 216 213 210 210 209 202 196 192 185 180 183 188 187 183 175 155 128 94 15 147 169 164 162 155 142 136 143 193 250
284 266 261 257 255 252 245 235 233 227 216 211 209 206 200 195 191 191 190 190 192 188 182 174 170 166 180 206 240 195 162 158 141 140 148 150 173 191
276 272 268 265 257 256 256 250 244 238 227 219 213 206 199 195 194 192 192 193 192 186 180 178 181 183 189 188 179 194 182 155 151 156 153 112 105 119
286 282 278 274 265 259 257 256 249 245 238 227 218 211 203 196 196 195 193 194 192 186 187 190 188 171 148 122 127 155 192 168 139 151 147 130 137 196
285 287 289 285 275 268 263 261 258 249 242 236 226 216 209 201 196 192 191 191 192 189 185 172 159 153 151 165 174 169 161 154 91 97 126 150 157 181
285 283 284 289 283 277 271 265 264 256 246 238 229 218 212 209 199 192 189 186 184 178 165 159 161 160 166 167 166 161 157 160 155 145 234 211 195 195